When you browse on this site, cookies collect data to enhance your experience and personalize the content and advertising you see.
Visit our Privacy Policy to learn more. By continuing to use the site, you agree to this use of cookies and data.
  • Em Portugal
  • Lista de países
  • Para 7 dias
  • Temperatura da água
  • Mapa do tempo
  • Widgets de tempo
  • user-avatar
    Iniciar Sessão

    Previsão horária em Bruxelas

    Hoje, 15 Novembro, Sexta-feira

    Tempo Temperatura Precipitação Vento Pressão Humidade
    00:00 +4°C° 0 mm 2 m/s 748 mmHg 92%
    01:00 +3°C° 0 mm 2 m/s 747 mmHg 91%
    02:00 +2°C° 0 mm 3 m/s 746 mmHg 90%
    03:00 +1°C° 0 mm 4 m/s 746 mmHg 89%
    04:00 +1°C° 0 mm 4 m/s 746 mmHg 90%
    05:00 +1°C° 0 mm 4 m/s 746 mmHg 91%
    06:00 0°C° 0 mm 4 m/s 745 mmHg 92%
    07:00 +1°C° 0 mm 4 m/s 745 mmHg 90%
    08:00 +1°C° 0 mm 4 m/s 746 mmHg 87%
    09:00 +1°C° 0 mm 4 m/s 746 mmHg 85%
    10:00 +3°C° 0 mm 4 m/s 746 mmHg 84%
    11:00 +3°C° 0 mm 4 m/s 746 mmHg 82%
    12:00 +3°C° 0 mm 4 m/s 746 mmHg 80%
    13:00 +4°C° 0 mm 4 m/s 746 mmHg 80%
    14:00 +4°C° 0 mm 3 m/s 746 mmHg 80%
    15:00 +4°C° 0 mm 3 m/s 746 mmHg 80%
    16:00 +4°C° 0 mm 3 m/s 746 mmHg 83%
    17:00 +3°C° 0 mm 3 m/s 746 mmHg 86%
    18:00 +3°C° 0 mm 3 m/s 747 mmHg 88%
    19:00 +2°C° 0 mm 3 m/s 747 mmHg 89%
    20:00 +2°C° 0 mm 3 m/s 748 mmHg 89%
    21:00 +2°C° 0 mm 3 m/s 748 mmHg 89%
    22:00 +2°C° 0 mm 3 m/s 749 mmHg 90%
    23:00 +1°C° 0 mm 3 m/s 749 mmHg 90%

    Amanhã, 16 Novembro, Sábado

    Tempo Temperatura Precipitação Vento Pressão Humidade
    00:00 +1°C° 0 mm 3 m/s 750 mmHg 90%
    01:00 +1°C° 0 mm 3 m/s 750 mmHg 91%
    02:00 0°C° 0 mm 3 m/s 750 mmHg 91%
    03:00 0°C° 0 mm 3 m/s 750 mmHg 91%
    04:00 +1°C° 0 mm 2 m/s 750 mmHg 90%
    05:00 +1°C° 0 mm 2 m/s 750 mmHg 90%
    06:00 +1°C° 0 mm 2 m/s 751 mmHg 90%
    07:00 +2°C° 0 mm 2 m/s 751 mmHg 87%
    08:00 +3°C° 0 mm 2 m/s 752 mmHg 83%
    09:00 +4°C° 0 mm 2 m/s 752 mmHg 80%
    10:00 +4°C° 0 mm 3 m/s 752 mmHg 76%
    11:00 +5°C° 0 mm 3 m/s 753 mmHg 72%
    12:00 +8°C° 0 mm 3 m/s 753 mmHg 68%
    13:00 +7°C° 0 mm 3 m/s 753 mmHg 71%
    14:00 +7°C° 0 mm 2 m/s 753 mmHg 73%
    15:00 +7°C° 0 mm 2 m/s 753 mmHg 75%
    16:00 +6°C° 0 mm 2 m/s 753 mmHg 78%
    17:00 +4°C° 0 mm 3 m/s 753 mmHg 81%
    18:00 +3°C° 0 mm 3 m/s 754 mmHg 85%
    19:00 +3°C° 0 mm 3 m/s 754 mmHg 85%
    20:00 +4°C° 0 mm 2 m/s 754 mmHg 86%
    21:00 +3°C° 0 mm 2 m/s 754 mmHg 87%
    22:00 +3°C° 0 mm 2 m/s 754 mmHg 88%
    23:00 +3°C° 0 mm 2 m/s 755 mmHg 88%

    Depois de amanhã, 17 Novembro, Domingo

    Tempo Temperatura Precipitação Vento Pressão Humidade
    00:00 +3°C° 0 mm 2 m/s 755 mmHg 89%
    01:00 +2°C° 0 mm 2 m/s 754 mmHg 89%
    02:00 +2°C° 0 mm 2 m/s 754 mmHg 89%
    03:00 +2°C° 0 mm 2 m/s 754 mmHg 90%
    04:00 +2°C° 0 mm 1 m/s 754 mmHg 89%
    05:00 +2°C° 0 mm 1 m/s 754 mmHg 89%
    06:00 +2°C° 0 mm 1 m/s 755 mmHg 89%
    07:00 +3°C° 0 mm 1 m/s 755 mmHg 86%
    08:00 +4°C° 0 mm 1 m/s 755 mmHg 83%
    09:00 +4°C° 0 mm 1 m/s 755 mmHg 80%
    10:00 +4°C° 0 mm 2 m/s 754 mmHg 77%
    11:00 +5°C° 0 mm 2 m/s 754 mmHg 74%
    12:00 +5°C° 0 mm 3 m/s 753 mmHg 72%
    13:00 +5°C° 0 mm 3 m/s 753 mmHg 73%
    14:00 +6°C° 0 mm 2 m/s 753 mmHg 75%
    15:00 +6°C° 0 mm 2 m/s 753 mmHg 77%
    16:00 +4°C° 0 mm 3 m/s 753 mmHg 80%
    17:00 +4°C° 0 mm 3 m/s 753 mmHg 82%
    18:00 +3°C° 0 mm 3 m/s 753 mmHg 85%
    19:00 +3°C° 0.2 mm 3 m/s 753 mmHg 86%
    20:00 +3°C° 0.2 mm 3 m/s 753 mmHg 88%
    21:00 +3°C° 0.2 mm 3 m/s 753 mmHg 90%
    22:00 +3°C° 0.1 mm 3 m/s 752 mmHg 90%
    23:00 +3°C° 0.1 mm 3 m/s 752 mmHg 91%

    18 Novembro, Segunda-feira

    Tempo Temperatura Precipitação Vento Pressão Humidade
    00:00 +3°C° 0.1 mm 3 m/s 752 mmHg 91%
    01:00 +3°C° 0.1 mm 3 m/s 752 mmHg 90%
    02:00 +3°C° 0.1 mm 4 m/s 751 mmHg 90%
    03:00 +3°C° 0.1 mm 4 m/s 751 mmHg 89%
    04:00 +3°C° 0.3 mm 4 m/s 751 mmHg 89%
    05:00 +2°C° 0.3 mm 5 m/s 751 mmHg 89%
    06:00 +3°C° 0.3 mm 5 m/s 750 mmHg 89%
    07:00 +3°C° 0.5 mm 5 m/s 750 mmHg 90%
    08:00 +3°C° 0.5 mm 5 m/s 750 mmHg 91%
    09:00 +5°C° 0.5 mm 5 m/s 750 mmHg 92%
    10:00 +5°C° 0.8 mm 5 m/s 750 mmHg 93%
    11:00 +5°C° 0.8 mm 5 m/s 750 mmHg 93%
    12:00 +4°C° 0.8 mm 6 m/s 750 mmHg 93%
    13:00 +6°C° 1.5 mm 5 m/s 750 mmHg 93%
    14:00 +6°C° 1.5 mm 5 m/s 750 mmHg 93%
    15:00 +6°C° 1.5 mm 5 m/s 750 mmHg 93%
    16:00 +6°C° 0.2 mm 5 m/s 751 mmHg 89%
    17:00 +6°C° 0.2 mm 5 m/s 751 mmHg 86%
    18:00 +6°C° 0.2 mm 5 m/s 752 mmHg 82%
    19:00 +6°C° 0.1 mm 5 m/s 752 mmHg 82%
    20:00 +6°C° 0.1 mm 5 m/s 753 mmHg 82%
    21:00 +6°C° 0.1 mm 5 m/s 753 mmHg 81%
    22:00 +5°C° 0 mm 5 m/s 754 mmHg 81%
    23:00 +3°C° 0 mm 5 m/s 754 mmHg 81%

    19 Novembro, Terça-feira

    Tempo Temperatura Precipitação Vento Pressão Humidade
    00:00 +2°C° 0 mm 5 m/s 755 mmHg 81%
    01:00 +2°C° 0 mm 5 m/s 755 mmHg 82%
    02:00 +3°C° 0 mm 4 m/s 755 mmHg 84%
    03:00 +3°C° 0 mm 4 m/s 756 mmHg 85%
    04:00 +1°C° 0 mm 4 m/s 756 mmHg 86%
    05:00 +1°C° 0 mm 4 m/s 756 mmHg 86%
    06:00 +1°C° 0 mm 4 m/s 756 mmHg 87%
    07:00 +1°C° 0 mm 4 m/s 757 mmHg 85%
    08:00 +1°C° 0 mm 4 m/s 757 mmHg 83%
    09:00 +1°C° 0 mm 4 m/s 758 mmHg 81%
    10:00 +3°C° 0 mm 4 m/s 758 mmHg 77%
    11:00 +4°C° 0 mm 3 m/s 758 mmHg 74%
    12:00 +5°C° 0 mm 3 m/s 758 mmHg 70%
    13:00 +5°C° 0 mm 3 m/s 757 mmHg 73%
    14:00 +5°C° 0 mm 3 m/s 757 mmHg 77%
    15:00 +5°C° 0 mm 2 m/s 757 mmHg 81%
    16:00 +4°C° 0 mm 2 m/s 757 mmHg 84%
    17:00 +3°C° 0 mm 3 m/s 757 mmHg 88%
    18:00 +2°C° 0 mm 3 m/s 757 mmHg 91%
    19:00 +2°C° 0 mm 3 m/s 757 mmHg 91%
    20:00 +2°C° 0 mm 3 m/s 758 mmHg 90%
    21:00 +1°C° 0 mm 3 m/s 758 mmHg 90%
    22:00 +1°C° 0 mm 3 m/s 758 mmHg 90%
    23:00 +1°C° 0 mm 3 m/s 757 mmHg 90%

    20 Novembro, Quarta-feira

    Tempo Temperatura Precipitação Vento Pressão Humidade
    00:00 +1°C° 0 mm 3 m/s 757 mmHg 90%
    01:00 +1°C° 0 mm 3 m/s 757 mmHg 89%
    02:00 +1°C° 0 mm 3 m/s 757 mmHg 89%
    03:00 +2°C° 0 mm 3 m/s 756 mmHg 88%
    04:00 +1°C° 0 mm 3 m/s 756 mmHg 89%
    05:00 +1°C° 0 mm 3 m/s 756 mmHg 89%
    06:00 +1°C° 0 mm 3 m/s 756 mmHg 90%
    07:00 +1°C° 0 mm 3 m/s 756 mmHg 87%
    08:00 +2°C° 0 mm 3 m/s 756 mmHg 85%
    09:00 +2°C° 0 mm 3 m/s 755 mmHg 83%
    10:00 +3°C° 0 mm 4 m/s 755 mmHg 79%
    11:00 +4°C° 0 mm 4 m/s 754 mmHg 75%
    12:00 +5°C° 0 mm 4 m/s 754 mmHg 71%
    13:00 +5°C° 0 mm 3 m/s 754 mmHg 73%
    14:00 +5°C° 0 mm 3 m/s 753 mmHg 75%
    15:00 +6°C° 0 mm 2 m/s 753 mmHg 76%
    16:00 +4°C° 0 mm 3 m/s 753 mmHg 79%
    17:00 +3°C° 0 mm 3 m/s 753 mmHg 81%
    18:00 +3°C° 0 mm 3 m/s 752 mmHg 84%
    19:00 +3°C° 0 mm 3 m/s 752 mmHg 83%
    20:00 +3°C° 0 mm 3 m/s 752 mmHg 83%
    21:00 +4°C° 0 mm 2 m/s 752 mmHg 82%
    22:00 +3°C° 0 mm 3 m/s 752 mmHg 84%
    23:00 +3°C° 0 mm 3 m/s 752 mmHg 85%
    Mostrar mais